Terminal Aerodrome Forecast
Issued by NWS

Home | Current Version | Previous Version | Text Only | Print | Product List | Glossary On
Versions: 1 2 3 4 5 6 7 8 9 10 11 12 13
000
FTUS43 KFGF 311700
TAFBJI
TAF
KBJI 311726Z 3118/0118 33006KT P6SM SKC
      TEMPO 3122/0101 FEW050
     FM010100 VRB03KT P6SM SKC=

USA.gov is the U.S. government's official web portal to all federal, state and local government web resources and services.